Location: Rowland
(34.5359°N, 79.2929°W)
Time: 20:57:50
(UTC+00:00)

Vanguard 2 - Pass Details

Date: 07 October 2022
Orbit: 553 x 2933 km, 32.9° (Epoch: 06 December)

Event Time Altitude Azimuth Distance (km) Brightness Sun altitude
Rises 00:08:45 0° 282° (WNW) 6,354 14.0 -16.2°
Reaches altitude 10° 00:13:27 10° 273° (W) 5,547 13.2 -17.1°
Maximum altitude 00:27:27 32° 220° (SW) 4,212 11.5 -20.0°
Drops below altitude 10° 00:41:03 10° 165° (SSE) 5,331 11.6 -22.8°
Sets 00:45:32 0° 155° (SSE) 6,077 11.8 -23.7°
